Weather History for Stevensville, MD

Change the Weather History Date:

Thursday, November 24, 2011

  Actual Average (KESN) Record (KESN)
Temperature  
Mean Temperature 50 °F -  
Max Temperature 59 °F 51 °F 72 °F (2014)
Min Temperature 41 °F 33 °F 18 °F (1956)
Degree Days  
Heating Degree Days 15    
Moisture  
Dew Point 34 °F    
Average Humidity 58    
Maximum Humidity 76    
Minimum Humidity 39    
Precipitation  
Precipitation 0.00 in - - ()
Sea Level Pressure  
Sea Level Pressure 30.22 in    
Wind  
Wind Speed - (North)    
Max Wind Speed -    
Max Gust Speed -    
Visibility 10 miles    
Events      
Averages and records for this station are not official NWS values.
T = Trace of Precipitation, MM = Missing Value Source: NWS Daily Summary

Daily Weather History Graph

Daily Weather History Graph

Search for Another Location

Airport:

Trip Planner

Search our weather history database for the weather conditions in past years. The results will help you decide how hot, cold, wet, or windy it might be!

Date:

Astronomy

Nov. 24, 2011 Rise Set
Actual Time 6:57 AM EST 4:45 PM EST
Civil Twilight 6:28 AM EST 5:15 PM EST
Nautical Twilight 5:55 AM EST 5:47 PM EST
Astronomical Twilight 5:23 AM EST 6:19 PM EST
Moon 6:12 AM EST (11/24) 4:15 PM EST (11/24)
Length of Visible Light 10h 46m
Length of Day
9h 48m
Waning Crescent, 0% of the Moon is Illuminated
Nov 24
Waning Crescent
Nov 25
New
Dec 2
First Quarter
Dec 10
Full
Dec 17
Last Quarter

Hourly Weather History & Observations

Time (EST) Temp. Dew Point Humidity Pressure Visibility Wind Dir Wind Speed Gust Speed Precip Events Conditions
12:02 AM 44.6 °F 33.8 °F 66% 30.08 in 10.0 mi North - - N/A   Clear
12:21 AM 44.6 °F 33.8 °F 66% 30.10 in 10.0 mi North - - N/A   Clear
12:40 AM 44.6 °F 33.8 °F 66% 30.10 in 10.0 mi North - - N/A   Clear
1:00 AM 44.6 °F 33.8 °F 66% 30.11 in 10.0 mi North - - N/A   Clear
1:19 AM 44.6 °F 32.0 °F 61% 30.12 in 10.0 mi North - - N/A   Clear
1:38 AM 44.6 °F 32.0 °F 61% 30.12 in 10.0 mi North - - N/A   Clear
1:58 AM 44.6 °F 32.0 °F 61% 30.13 in 10.0 mi North - - N/A   Clear
2:17 AM 44.6 °F 32.0 °F 61% 30.14 in 10.0 mi North - - N/A   Clear
2:37 AM 44.6 °F 32.0 °F 61% 30.14 in 10.0 mi North - - N/A   Clear
3:15 AM 42.8 °F 32.0 °F 66% 30.15 in 10.0 mi North - - N/A   Clear
3:35 AM 42.8 °F 32.0 °F 66% 30.15 in 10.0 mi North - - N/A   Clear
3:54 AM 42.8 °F 33.8 °F 70% 30.16 in 10.0 mi North - - N/A   Clear
4:13 AM 42.8 °F 32.0 °F 66% 30.18 in 10.0 mi North - - N/A   Clear
4:52 AM 42.8 °F 32.0 °F 66% 30.19 in 10.0 mi North - - N/A   Clear
5:11 AM 42.8 °F 32.0 °F 66% 30.20 in 10.0 mi North - - N/A   Clear
5:31 AM 42.8 °F 32.0 °F 66% 30.20 in 10.0 mi North - - N/A   Clear
5:50 AM 42.8 °F 33.8 °F 70% 30.20 in 10.0 mi North - - N/A   Clear
6:09 AM 41.0 °F 33.8 °F 76% 30.21 in 10.0 mi North - - N/A   Clear
6:28 AM 41.0 °F 33.8 °F 76% 30.21 in 10.0 mi North - - N/A   Clear
7:07 AM 41.0 °F 33.8 °F 76% 30.24 in 10.0 mi North - - N/A   Clear
7:26 AM 41.0 °F 33.8 °F 76% 30.24 in 10.0 mi North - - N/A   Clear
7:46 AM 42.8 °F 33.8 °F 70% 30.25 in 10.0 mi North - - N/A   Clear
8:05 AM 44.6 °F 33.8 °F 66% 30.25 in 10.0 mi North - - N/A   Clear
8:44 AM 46.4 °F 33.8 °F 62% 30.26 in 10.0 mi North - - N/A   Clear
9:03 AM 46.4 °F 33.8 °F 62% 30.26 in 10.0 mi North - - N/A   Clear
9:22 AM 46.4 °F 33.8 °F 62% 30.26 in 10.0 mi North - - N/A   Clear
9:41 AM 46.4 °F 33.8 °F 62% 30.27 in 10.0 mi North - - N/A   Clear
10:01 AM 48.2 °F 33.8 °F 58% 30.27 in 10.0 mi North - - N/A   Clear
10:20 AM 50.0 °F 33.8 °F 54% 30.27 in 10.0 mi North - - N/A   Clear
10:39 AM 50.0 °F 33.8 °F 54% 30.27 in 10.0 mi North - - N/A   Clear
10:59 AM 51.8 °F 33.8 °F 50% 30.26 in 10.0 mi North - - N/A   Clear
11:18 AM 51.8 °F 33.8 °F 50% 30.25 in 10.0 mi North - - N/A   Clear
11:37 AM 51.8 °F 33.8 °F 50% 30.25 in 10.0 mi North - - N/A   Clear
11:56 AM 53.6 °F 35.6 °F 51% 30.24 in 10.0 mi North - - N/A   Clear
12:16 PM 55.4 °F 33.8 °F 44% 30.23 in 10.0 mi North - - N/A   Clear
12:35 PM 55.4 °F 35.6 °F 47% 30.23 in 10.0 mi North - - N/A   Clear
12:54 PM 57.2 °F 33.8 °F 41% 30.23 in 10.0 mi North - - N/A   Clear
1:14 PM 59.0 °F 33.8 °F 39% 30.23 in 10.0 mi North - - N/A   Clear
1:33 PM 59.0 °F 33.8 °F 39% 30.23 in 10.0 mi North - - N/A   Clear
1:52 PM 59.0 °F 35.6 °F 42% 30.23 in 10.0 mi North - - N/A   Clear
2:12 PM 59.0 °F 35.6 °F 42% 30.23 in 10.0 mi North - - N/A   Clear
2:31 PM 59.0 °F 37.4 °F 45% 30.23 in 10.0 mi North - - N/A   Clear
2:50 PM 59.0 °F 37.4 °F 45% 30.23 in 10.0 mi North - - N/A   Clear
3:09 PM 59.0 °F 37.4 °F 45% 30.23 in 10.0 mi North - - N/A   Clear
3:29 PM 59.0 °F 35.6 °F 42% 30.23 in 10.0 mi North - - N/A   Clear
3:48 PM 59.0 °F 37.4 °F 45% 30.24 in 10.0 mi North - - N/A   Clear
4:07 PM 57.2 °F 37.4 °F 48% 30.24 in 10.0 mi North - - N/A   Clear
5:05 PM 53.6 °F 37.4 °F 54% 30.25 in 10.0 mi North - - N/A   Clear
5:25 PM 53.6 °F 37.4 °F 54% 30.26 in 10.0 mi North - - N/A   Clear
5:44 PM 53.6 °F 35.6 °F 51% 30.26 in 10.0 mi North - - N/A   Clear
6:03 PM 51.8 °F 39.2 °F 62% 30.26 in 10.0 mi North - - N/A   Clear
6:22 PM 51.8 °F 41.0 °F 67% 30.27 in 10.0 mi North - - N/A   Clear
7:01 PM 51.8 °F 33.8 °F 50% 30.27 in 10.0 mi North - - N/A   Clear
7:20 PM 46.4 °F 35.6 °F 66% 30.27 in 10.0 mi North - - N/A   Clear
7:40 PM 44.6 °F 35.6 °F 71% 30.27 in 10.0 mi North - - N/A   Clear
7:59 PM 46.4 °F 33.8 °F 62% 30.26 in 10.0 mi North - - N/A   Clear
8:18 PM 50.0 °F 35.6 °F 58% 30.26 in 10.0 mi North - - N/A   Clear
8:57 PM 50.0 °F 35.6 °F 58% 30.26 in 10.0 mi North - - N/A   Clear
9:16 PM 50.0 °F 33.8 °F 54% 30.26 in 10.0 mi North - - N/A   Clear
9:35 PM 50.0 °F 33.8 °F 54% 30.26 in 10.0 mi North - - N/A   Clear
9:55 PM 50.0 °F 33.8 °F 54% 30.26 in 10.0 mi North - - N/A   Clear
10:14 PM 46.4 °F 33.8 °F 62% 30.26 in 10.0 mi North - - N/A   Clear
10:33 PM 46.4 °F 33.8 °F 62% 30.26 in 10.0 mi North - - N/A   Clear
10:53 PM 46.4 °F 33.8 °F 62% 30.26 in 10.0 mi North - - N/A   Clear
11:12 PM 46.4 °F 33.8 °F 62% 30.26 in 10.0 mi North - - N/A   Clear
11:31 PM 46.4 °F 33.8 °F 62% 30.26 in 10.0 mi North - - N/A   Clear
11:51 PM 48.2 °F 33.8 °F 58% 30.26 in 10.0 mi North - - N/A   Clear